STARLINK-30065

decayed
NORAD ID: 55701 Int'l Des: 2023-026 Owner: SPXS Country: US Constellation: starlink
LEOCIRCULAR
グループ

STARLINK-30065について

説明を読み込み中...

高度履歴

Altitude vs Time

uPlot chart will show altitude changes over time

軌道要素

1 55701U 23026G 24207.04844509 .13060781 89550-5 57095-2 0 9996
2 55701 42.9891 67.3115 0013044 278.5663 230.7082 16.21294983 81753
Epoch: Jul 25, 2024 • Age: 10107 hours

現在のステータス

Position data unavailable
打ち上げ日 Feb 27, 2023
運用期間 2.5 years
落下予定日 Jul 25, 2024
タイプ internet

技術仕様

分類 Payload
質量 730.00 kg
乾燥質量 700.00 kg
総質量 730.00 kg
長さ 0.30 m
直径 4.10 m
スパン 29.00 m
形状 Box + pan
製造者 SPXS
バスタイプ Starlink V2M
フェーズステータス Unknown Transfer Status
所有者/国 SPXS/US

大規模コンステレーション

Loading constellations...